DateTimeUTC,F1_A11,F1_S11,BsB_S11,BsG_S11,BsR_S11,BbsB_S11,BbsG_S11,BbsR_S11,BaB_A11,BaG_A11,BaR_A11,Tu_S11,T_S11,Uu_S11,U_S11,P_S11,T1_A11
2021-12-18T02:00:00Z,00000200,21000000,,,,,,,0000.05,-000.11,0000.25,18.2,25.4,,00.0,0657.3,31.0
2021-12-18T02:01:00Z,00000200,21000000,,,,,,,0000.09,0000.12,0000.29,18.2,25.4,,00.0,0657.4,31.0
2021-12-18T02:02:00Z,00000200,21000000,,,,,,,0000.20,-000.16,-000.24,18.1,25.4,,00.0,0657.4,31.0
2021-12-18T02:03:00Z,00000200,61000000,,,,,,,-000.27,0000.19,-000.08,18.1,25.5,,00.0,0657.4,31.0
2021-12-18T02:04:00Z,00000200,41000000,0001.46,0000.43,-000.21,-000.03,-000.03,-000.29,0000.19,0000.21,0000.10,18.4,25.3,,00.0,0658.3,31.0
2021-12-18T02:05:00Z,00000200,01000000,0000.53,0000.18,-000.04,0000.31,0000.10,0000.30,0000.04,-000.23,0000.11,18.4,25.2,,00.0,0658.4,31.0
2021-12-18T02:06:00Z,00000200,01000000,0000.51,0000.29,0000.15,0000.10,-000.12,0000.30,-000.28,-000.12,-000.11,18.5,25.2,,00.0,0658.4,31.0
2021-12-18T02:07:00Z,00000200,01000000,0000.45,0000.07,0000.17,0000.10,0000.18,-000.01,0000.24,0000.05,0000.03,18.5,25.2,,00.0,0658.5,31.0
2021-12-18T02:08:00Z,00000200,01000000,0001.29,0000.11,0000.17,-000.14,0000.01,0000.33,0000.09,0000.14,-000.09,18.5,25.2,,00.0,0658.4,31.0
2021-12-18T02:09:00Z,00000200,01000000,0000.64,-000.32,0000.03,-000.52,-000.14,-000.12,-000.05,-000.09,0000.07,18.5,25.2,,00.0,0658.5,31.0
2021-12-18T02:10:00Z,00000200,01000000,0000.39,0000.44,-000.18,-000.39,-000.37,0000.15,-000.08,-000.09,-000.09,18.5,25.2,,00.0,0658.5,31.0
2021-12-18T02:11:00Z,00000200,01000000,0000.48,-000.05,0000.21,0000.12,0000.05,0000.22,0000.22,0000.40,-000.05,18.5,25.2,,00.0,0658.5,30.9
2021-12-18T02:12:00Z,00000200,01000000,0000.51,-000.03,0000.07,0000.22,-000.38,0000.32,0000.03,-000.08,0000.32,18.5,25.2,,00.0,0658.5,31.0
2021-12-18T02:13:00Z,00000200,01000000,0001.10,0000.04,-000.05,-000.47,0000.03,-000.04,0000.17,-000.14,0000.07,18.5,25.2,,00.0,0658.6,31.0
2021-12-18T02:14:00Z,00000200,01000000,0000.47,0000.07,0000.08,-000.32,0000.14,0000.39,-000.07,0000.43,0000.03,18.5,25.2,,00.0,0658.6,31.0
2021-12-18T02:15:00Z,00000200,01000000,0000.48,0000.42,0000.08,0000.24,0000.13,-000.02,0000.07,0000.04,0000.22,18.5,25.2,,00.0,0658.6,31.0
2021-12-18T02:16:00Z,00000200,01000000,0001.02,0000.37,0000.32,-000.35,0000.34,0000.25,0000.17,-000.16,-000.27,18.5,25.2,,00.0,0658.6,30.9
2021-12-18T02:17:00Z,00000200,01000000,0001.51,-000.12,0000.07,0000.50,-000.11,0000.07,-000.31,-000.09,-000.00,18.5,25.2,,00.0,0658.7,30.9
2021-12-18T02:18:00Z,00000200,01000000,0000.51,0000.15,0000.07,-000.18,0000.04,0000.11,0000.19,0000.29,-000.04,18.5,25.2,,00.0,0658.7,31.0
2021-12-18T02:19:00Z,00000200,01000000,0000.59,0000.59,0000.35,-000.52,0000.29,0000.33,-000.03,-000.10,0000.19,18.5,25.2,,00.0,0658.6,31.0
2021-12-18T02:20:00Z,00000200,01000000,0000.82,0000.41,-000.40,-000.43,0000.23,-000.05,-000.02,0000.18,-000.12,18.5,25.2,,00.0,0658.7,31.0
2021-12-18T02:21:00Z,00000200,01000000,0000.41,0000.37,-000.12,-000.28,-000.12,-000.05,0000.11,0000.10,-000.08,18.5,25.2,,00.0,0658.7,31.0
2021-12-18T02:22:00Z,00000200,01000000,0001.04,0000.24,-000.00,0000.47,-000.21,-000.25,0000.25,-000.25,0000.27,18.5,25.1,,00.0,0658.7,31.0
2021-12-18T02:23:00Z,00000200,01000000,0000.81,0000.27,0000.01,0000.66,-000.13,-000.14,-000.04,0000.27,0000.11,18.5,25.2,,00.0,0658.7,31.0
2021-12-18T02:24:00Z,00000200,01000000,0001.13,0000.48,-000.11,-000.05,0000.30,-000.02,-000.21,0000.05,-000.20,18.5,25.1,,00.0,0658.7,31.0
2021-12-18T02:25:00Z,00000200,01000000,0000.83,0000.01,0000.07,0000.15,-000.16,-000.03,-000.12,-000.16,0000.11,18.5,25.2,,00.0,0658.7,31.0
2021-12-18T02:26:00Z,00000200,01000000,0001.34,0000.25,0000.12,0000.44,0000.27,0000.49,0000.10,0000.18,-000.14,18.5,25.2,,00.0,0658.8,31.0
2021-12-18T02:27:00Z,00000200,01000000,0001.48,0000.25,0000.15,-000.30,-000.02,0000.20,0000.37,-000.09,0000.40,18.5,25.2,,00.0,0658.8,31.0
2021-12-18T02:28:00Z,00000200,01000000,0000.98,0000.27,-000.06,0000.13,0000.25,0000.01,0000.23,-000.15,-000.13,18.5,25.2,,00.0,0658.8,31.0
2021-12-18T02:29:00Z,00000200,01000000,0000.69,0000.53,0000.28,-000.15,0000.24,0000.19,-000.08,0000.38,0000.08,18.5,25.2,,00.0,0658.8,31.0
2021-12-18T02:30:00Z,00000200,01000000,0000.64,0000.02,0000.08,-000.10,0000.20,0000.10,0000.43,0000.32,0000.12,18.5,25.2,,00.0,0658.8,31.0
2021-12-18T02:31:00Z,00000200,01000000,0000.93,0000.69,0000.32,0000.78,0000.17,0000.43,0000.12,0000.28,0000.37,18.5,25.2,,00.0,0658.8,31.0
2021-12-18T02:32:00Z,00000200,01000000,0000.89,0000.11,-000.16,0000.18,-000.16,0000.11,0000.14,-000.39,-000.13,18.5,25.2,,00.0,0658.8,31.0
2021-12-18T02:33:00Z,00000200,01000000,0000.80,0000.46,0000.18,-000.24,0000.15,0000.04,-000.22,0000.34,0000.03,18.5,25.2,,00.0,0658.8,31.0
2021-12-18T02:34:00Z,00000200,01000000,0000.13,-000.03,0000.17,0000.50,0000.03,0000.32,0000.09,-000.07,0000.10,18.5,25.1,,00.0,0658.8,31.0
2021-12-18T02:35:00Z,00000200,01000000,0000.79,0000.37,0000.04,-000.10,-000.20,0000.05,0000.24,0000.50,0000.03,18.5,25.1,,00.0,0658.9,31.0
2021-12-18T02:36:00Z,00000200,01000000,0000.17,0000.27,0000.18,0000.30,-000.08,0000.13,0000.08,-000.14,-000.05,18.5,25.2,,00.0,0658.9,31.0
2021-12-18T02:37:00Z,00000200,01000000,0001.11,0000.21,0000.03,0000.03,0000.09,-000.07,-000.22,0000.37,0000.38,18.5,25.2,,00.0,0658.9,31.0
2021-12-18T02:38:00Z,00000200,01000000,0000.46,0000.53,0000.33,0000.18,-000.07,0000.43,0000.49,-000.28,0000.03,18.5,25.2,,00.0,0658.9,31.0
2021-12-18T02:39:00Z,00000200,01000000,0001.10,0000.18,-000.08,0000.29,-000.17,0000.14,-000.00,0000.08,-000.31,18.5,25.1,,00.0,0658.9,31.0
2021-12-18T02:40:00Z,00000200,01000000,-000.05,-000.04,-000.34,-000.57,-000.07,-000.27,-000.05,0000.17,0000.37,18.5,25.1,,00.0,0658.9,31.0
2021-12-18T02:41:00Z,00000200,01000000,0000.57,-000.01,-000.44,0000.01,-000.07,0000.01,-000.08,-000.57,-000.11,18.5,25.1,,00.0,0659.0,31.0
2021-12-18T02:42:00Z,00000200,01000000,0000.80,0000.14,0000.14,0000.13,0000.01,0000.09,-000.35,0000.13,-000.29,18.5,25.1,,00.0,0659.0,31.0
2021-12-18T02:43:00Z,00000200,01000000,0001.06,0000.17,-000.33,-000.07,-000.14,0000.04,0000.20,0000.00,-000.07,18.5,25.1,,00.0,0659.0,31.0
2021-12-18T02:44:00Z,00000200,01000000,0000.88,0000.29,-000.10,-000.19,-000.12,0000.50,-000.34,0000.08,-000.03,18.5,25.1,,00.0,0659.0,31.0
2021-12-18T02:45:00Z,00000200,01000000,0001.00,0000.30,-000.01,0000.10,-000.05,-000.08,0000.11,-000.38,0000.02,18.5,25.1,,00.0,0659.0,31.0
2021-12-18T02:46:00Z,00000200,01000000,0001.12,0000.29,-000.16,0000.11,0000.06,-000.15,-000.35,0000.18,-000.04,18.5,25.1,,00.0,0659.0,31.0
2021-12-18T02:47:00Z,00000200,01000000,0001.15,0000.59,0000.38,0000.38,-000.18,0000.32,-000.08,-000.35,-000.03,18.5,25.1,,00.0,0659.0,31.0
2021-12-18T02:48:00Z,00000200,01000000,0001.07,0000.21,-000.12,0000.07,0000.10,-000.23,0000.69,0000.15,-000.11,18.5,25.1,,00.0,0659.1,31.0
2021-12-18T02:49:00Z,00000200,01000000,0000.82,0000.14,0000.18,0000.73,-000.20,0000.08,-000.52,-000.07,-000.03,18.5,25.1,,00.0,0659.0,31.0
2021-12-18T02:50:00Z,00000200,01000000,0000.80,0000.23,0000.34,0000.42,0000.08,0000.19,-000.09,-000.12,-000.06,18.5,25.1,,00.0,0659.0,31.0
2021-12-18T02:51:00Z,00000200,01000000,0000.85,-000.09,-000.13,0000.64,-000.18,0000.21,-000.07,0000.38,0000.33,18.5,25.1,,00.0,0659.1,31.0
2021-12-18T02:52:00Z,00000200,01000000,0001.27,0000.28,-000.11,0000.61,-000.10,-000.01,0000.25,-000.21,-000.26,18.5,25.1,,00.0,0659.1,31.0
2021-12-18T02:53:00Z,00000200,01000000,0000.38,0000.01,0000.07,-000.23,0000.23,-000.31,0000.03,-000.07,-000.04,18.5,25.1,,00.0,0659.1,31.0
2021-12-18T02:54:00Z,00000200,01000000,0000.42,0000.32,0000.22,0000.47,-000.11,-000.10,-000.12,-000.14,-000.02,18.5,25.1,,00.0,0659.1,31.0
2021-12-18T02:55:00Z,00000200,01000000,0001.34,0000.59,0000.11,0000.08,-000.15,0000.16,0000.07,-000.11,0000.05,18.5,25.1,,00.0,0659.1,31.0
2021-12-18T02:56:00Z,00000200,01000000,0001.38,0000.50,0000.07,-000.25,0000.19,0000.30,-000.34,0000.04,-000.17,18.5,25.1,,00.0,0659.1,31.0
2021-12-18T02:57:00Z,00000200,41000000,,,,,,,0000.49,0000.35,0000.23,18.6,25.2,,00.0,0659.1,31.0
2021-12-18T02:58:00Z,00000200,61000000,,,,,,,-000.04,-000.18,-000.01,18.2,25.3,,00.0,0658.1,31.0
2021-12-18T02:59:00Z,00000200,21000000,,,,,,,-000.33,0000.18,-000.03,18.2,25.4,,00.0,0658.1,31.0
